Find Starlink 3850

NORAD ID: 52342 Int'l Des: 2022-045 Owner: SPXS Country: US Constellation: starlink operational
LEOCIRCULAR

实时位置

正在加载3D地球...

关于 Starlink 3850

正在加载描述...

即将过境

Passes for default location (London). Set your location on the main map for personalized predictions.

高度历史

Loading altitude history...

两行轨道根数

1 52342U 22045M 26119.00193001 .00003273 00000-0 22349-3 0 9990
2 52342 53.2176 333.3755 0001466 97.6500 262.4659 15.08863085223370
Epoch: Apr 29, 2026 • Age: 13 hours

当前状态

高度 546.9 km
速度 7.59 km/s
星下点 -23.17°S, 94.55°W
发射日期 Apr 29, 2022
运行时间 3.9 years
类型 internet

技术详情

分类 Payload
质量 297.00 kg
干质量 275.00 kg
总质量 297.00 kg
长度 0.20 m
直径 2.80 m
跨度 9.00 m
形状 Box + pan
制造商 SPXS
平台类型 Starlink
阶段状态 In Orbit
所有者/国家 SPXS/US

Most Searched